Index of /20260412/WXO-DD/model_gdps/15km/12/061
Name Last modified Size Description
Parent Directory -
20260412T12Z_MSC_GDPS_AirTemp_AGL-120m_LatLon0.15_PT061H.grib2 2026-04-12 16:14 911K
20260412T12Z_MSC_GDPS_AirTemp_AGL-2m_LatLon0.15_PT061H.grib2 2026-04-12 16:14 1.2M
20260412T12Z_MSC_GDPS_AirTemp_AGL-40m_LatLon0.15_PT061H.grib2 2026-04-12 16:14 931K
20260412T12Z_MSC_GDPS_AirTemp_AGL-80m_LatLon0.15_PT061H.grib2 2026-04-12 16:14 920K
20260412T12Z_MSC_GDPS_Albedo_Sfc_LatLon0.15_PT061H.grib2 2026-04-12 16:14 248K
20260412T12Z_MSC_GDPS_ConvectivePrecip-Accum_Sfc_LatLon0.15_PT061H.grib2 2026-04-12 16:14 2.8M
20260412T12Z_MSC_GDPS_DewPointDepression_AGL-2m_LatLon0.15_PT061H.grib2 2026-04-12 16:14 749K
20260412T12Z_MSC_GDPS_DewPoint_AGL-2m_LatLon0.15_PT061H.grib2 2026-04-12 16:14 608K
20260412T12Z_MSC_GDPS_DownwardLongwaveRadiationFlux-Accum_Sfc_LatLon0.15_PT061H.grib2 2026-04-12 16:14 867K
20260412T12Z_MSC_GDPS_DownwardShortwaveRadiationFlux-Accum_Sfc_LatLon0.15_PT061H.grib2 2026-04-12 16:14 1.1M
20260412T12Z_MSC_GDPS_FreezingRain-Accum1h_Sfc_LatLon0.15_PT061H.grib2 2026-04-12 16:14 19K
20260412T12Z_MSC_GDPS_FreezingRain-Accum_Sfc_LatLon0.15_PT061H.grib2 2026-04-12 16:14 162K
20260412T12Z_MSC_GDPS_IcePellets-Accum1h_Sfc_LatLon0.15_PT061H.grib2 2026-04-12 16:14 7.9K
20260412T12Z_MSC_GDPS_IcePellets-Accum_Sfc_LatLon0.15_PT061H.grib2 2026-04-12 16:14 74K
20260412T12Z_MSC_GDPS_LatentHeatNetFlux_Sfc_LatLon0.15_PT061H.grib2 2026-04-12 16:14 641K
20260412T12Z_MSC_GDPS_NetLongwaveRadiationFlux-Accum_Sfc_LatLon0.15_PT061H.grib2 2026-04-12 16:14 1.2M
20260412T12Z_MSC_GDPS_NetShortwaveRadiationFlux-Accum_Sfc_LatLon0.15_PT061H.grib2 2026-04-12 16:14 1.1M
20260412T12Z_MSC_GDPS_O3MixingRatio_LatLon0.15_PT061H.grib2 2026-04-12 17:05 2.0M
20260412T12Z_MSC_GDPS_O3_EAtm_LatLon0.15_PT061H.grib2 2026-04-12 17:05 2.1M
20260412T12Z_MSC_GDPS_PlanetaryBoundaryLayerHeight_Sfc_LatLon0.15_PT061H.grib2 2026-04-12 16:14 2.4M
20260412T12Z_MSC_GDPS_Precip-Accum1h_Sfc_LatLon0.15_PT061H.grib2 2026-04-12 16:14 3.2M
20260412T12Z_MSC_GDPS_Precip-Accum_Sfc_LatLon0.15_PT061H.grib2 2026-04-12 16:14 4.6M
20260412T12Z_MSC_GDPS_PrecipRate_Sfc_LatLon0.15_PT061H.grib2 2026-04-12 16:14 2.8M
20260412T12Z_MSC_GDPS_Pressure_MSL_LatLon0.15_PT061H.grib2 2026-04-12 16:14 817K
20260412T12Z_MSC_GDPS_Pressure_Sfc_LatLon0.15_PT061H.grib2 2026-04-12 16:14 1.1M
20260412T12Z_MSC_GDPS_RadiativeTemp_Sfc_LatLon0.15_PT061H.grib2 2026-04-12 16:14 658K
20260412T12Z_MSC_GDPS_Rain-Accum1h_Sfc_LatLon0.15_PT061H.grib2 2026-04-12 16:14 1.4M
20260412T12Z_MSC_GDPS_Rain-Accum_Sfc_LatLon0.15_PT061H.grib2 2026-04-12 16:14 3.4M
20260412T12Z_MSC_GDPS_RelativeHumidity_AGL-2m_LatLon0.15_PT061H.grib2 2026-04-12 16:14 1.0M
20260412T12Z_MSC_GDPS_Runoff-Accum_Sfc_LatLon0.15_PT061H.grib2 2026-04-12 16:14 84K
20260412T12Z_MSC_GDPS_SensibleHeatNetFlux_Sfc_LatLon0.15_PT061H.grib2 2026-04-12 16:14 600K
20260412T12Z_MSC_GDPS_Snow-Accum1h_Sfc_LatLon0.15_PT061H.grib2 2026-04-12 16:14 1.0M
20260412T12Z_MSC_GDPS_Snow-Accum_Sfc_LatLon0.15_PT061H.grib2 2026-04-12 16:14 1.7M
20260412T12Z_MSC_GDPS_SnowDepth_Sfc_LatLon0.15_PT061H.grib2 2026-04-12 16:14 1.8M
20260412T12Z_MSC_GDPS_SoilTemp_DBS-0to10cm_LatLon0.15_PT061H.grib2 2026-04-12 16:14 506K
20260412T12Z_MSC_GDPS_SoilTemp_Sfc_LatLon0.15_PT061H.grib2 2026-04-12 16:14 575K
20260412T12Z_MSC_GDPS_SoilVolumetricWaterContent_DBS-0to10cm_LatLon0.15_PT061H.grib2 2026-04-12 16:14 551K
20260412T12Z_MSC_GDPS_SoilVolumetricWaterContent_DBS-0to1cm_LatLon0.15_PT061H.grib2 2026-04-12 16:14 654K
20260412T12Z_MSC_GDPS_SpecificHumidity_AGL-120m_LatLon0.15_PT061H.grib2 2026-04-12 16:14 1.1M
20260412T12Z_MSC_GDPS_SpecificHumidity_AGL-2m_LatLon0.15_PT061H.grib2 2026-04-12 16:14 1.2M
20260412T12Z_MSC_GDPS_SpecificHumidity_AGL-40m_LatLon0.15_PT061H.grib2 2026-04-12 16:14 1.1M
20260412T12Z_MSC_GDPS_SpecificHumidity_AGL-80m_LatLon0.15_PT061H.grib2 2026-04-12 16:14 1.1M
20260412T12Z_MSC_GDPS_SpecificHumidity_Sfc_LatLon0.15_PT061H.grib2 2026-04-12 16:14 617K
20260412T12Z_MSC_GDPS_TotalCloudCover_Sfc_LatLon0.15_PT061H.grib2 2026-04-12 16:14 825K
20260412T12Z_MSC_GDPS_UVIndex-ClearSky_Sfc_LatLon0.15_PT061H.grib2 2026-04-12 17:05 1.0M
20260412T12Z_MSC_GDPS_UVIndex_Sfc_LatLon0.15_PT061H.grib2 2026-04-12 17:05 1.5M
20260412T12Z_MSC_GDPS_UpwardLongwaveRadiationFlux_NTAtm_LatLon0.15_PT061H.grib2 2026-04-12 16:14 1.0M
20260412T12Z_MSC_GDPS_WindDir_AGL-10m_LatLon0.15_PT061H.grib2 2026-04-12 16:14 1.3M
20260412T12Z_MSC_GDPS_WindDir_AGL-120m_LatLon0.15_PT061H.grib2 2026-04-12 16:14 1.3M
20260412T12Z_MSC_GDPS_WindDir_AGL-40m_LatLon0.15_PT061H.grib2 2026-04-12 16:14 1.4M
20260412T12Z_MSC_GDPS_WindDir_AGL-80m_LatLon0.15_PT061H.grib2 2026-04-12 16:14 1.4M
20260412T12Z_MSC_GDPS_WindDir_IsbL-0700_LatLon0.15_PT061H.grib2 2026-04-12 16:14 1.6M
20260412T12Z_MSC_GDPS_WindGust-Max_AGL-10m_LatLon0.15_PT061H.grib2 2026-04-12 16:14 2.2M
20260412T12Z_MSC_GDPS_WindGust-Min_AGL-10m_LatLon0.15_PT061H.grib2 2026-04-12 16:14 2.2M
20260412T12Z_MSC_GDPS_WindGust_AGL-10m_LatLon0.15_PT061H.grib2 2026-04-12 16:14 2.2M
20260412T12Z_MSC_GDPS_WindSpeed_AGL-10m_LatLon0.15_PT061H.grib2 2026-04-12 16:14 1.1M
20260412T12Z_MSC_GDPS_WindSpeed_AGL-120m_LatLon0.15_PT061H.grib2 2026-04-12 16:14 1.2M
20260412T12Z_MSC_GDPS_WindSpeed_AGL-40m_LatLon0.15_PT061H.grib2 2026-04-12 16:14 1.2M
20260412T12Z_MSC_GDPS_WindSpeed_AGL-80m_LatLon0.15_PT061H.grib2 2026-04-12 16:14 1.2M
20260412T12Z_MSC_GDPS_WindSpeed_IsbL-0700_LatLon0.15_PT061H.grib2 2026-04-12 16:14 1.5M
20260412T12Z_MSC_GDPS_WindU_AGL-10m_LatLon0.15_PT061H.grib2 2026-04-12 16:14 1.3M
20260412T12Z_MSC_GDPS_WindU_AGL-120m_LatLon0.15_PT061H.grib2 2026-04-12 16:14 1.0M
20260412T12Z_MSC_GDPS_WindU_AGL-40m_LatLon0.15_PT061H.grib2 2026-04-12 16:14 970K
20260412T12Z_MSC_GDPS_WindU_AGL-80m_LatLon0.15_PT061H.grib2 2026-04-12 16:14 1.0M
20260412T12Z_MSC_GDPS_WindU_IsbL-0700_LatLon0.15_PT061H.grib2 2026-04-12 16:14 1.2M
20260412T12Z_MSC_GDPS_WindV_AGL-10m_LatLon0.15_PT061H.grib2 2026-04-12 16:14 1.3M
20260412T12Z_MSC_GDPS_WindV_AGL-120m_LatLon0.15_PT061H.grib2 2026-04-12 16:14 1.0M
20260412T12Z_MSC_GDPS_WindV_AGL-40m_LatLon0.15_PT061H.grib2 2026-04-12 16:14 967K
20260412T12Z_MSC_GDPS_WindV_AGL-80m_LatLon0.15_PT061H.grib2 2026-04-12 16:14 1.0M
20260412T12Z_MSC_GDPS_WindV_IsbL-0700_LatLon0.15_PT061H.grib2 2026-04-12 16:14 1.2M